| time (UTC) | temp F | wind direction | speed MPH | gust MPH | rain 1hr in | rain 24hr in | rain mn in | humidity % | barometer mb |
| 20260504005203 | 53 | 356 | 1.0 | 1.0 | 0.00 | 0.00 | 0.00 | 94 | 1007.7 |
| 20260504004702 | 53 | 344 | 0.0 | 1.0 | 0.00 | 0.00 | 0.00 | 94 | 1007.5 |
| 20260504004157 | 53 | 347 | 0.0 | 1.0 | 0.00 | 0.00 | 0.00 | 93 | 1007.6 |
| 20260504003654 | 54 | 338 | 2.0 | 2.0 | 0.00 | 0.00 | 0.00 | 93 | 1007.8 |
| 20260504003151 | 54 | 342 | 0.0 | 1.0 | 0.00 | 0.00 | 0.00 | 93 | 1007.6 |
| 20260504002648 | 53 | 347 | 1.0 | 2.0 | 0.00 | 0.00 | 0.00 | 94 | 1007.3 |
| 20260504002145 | 53 | 348 | 2.0 | 2.0 | 0.00 | 0.00 | 0.00 | 94 | 1007.3 |
| 20260504001643 | 53 | 350 | 1.0 | 2.0 | 0.00 | 0.00 | 0.00 | 94 | 1007.4 |
| 20260504001139 | 53 | 350 | 0.0 | 1.0 | 0.00 | 0.00 | 0.00 | 94 | 1007.3 |
| 20260504000636 | 53 | 344 | 1.0 | 2.0 | 0.00 | 0.00 | 0.00 | 94 | 1007.7 |
| 20260504000134 | 53 | 335 | 2.0 | 2.0 | 0.00 | 0.00 | 0.00 | 94 | 1007.2 |
| 20260503235631 | 53 | 343 | 0.0 | 0.0 | 0.00 | 0.00 | 0.00 | 94 | 1007.1 |
| 20260503235128 | 53 | 348 | 0.0 | 0.0 | 0.00 | 0.00 | 0.00 | 94 | 1007.0 |
| 20260503234626 | 53 | 333 | 1.0 | 1.0 | 0.00 | 0.00 | 0.00 | 94 | 1007.2 |
| 20260503234124 | 53 | 351 | 1.0 | 1.0 | 0.00 | 0.00 | 0.00 | 94 | 1007.2 |
| 20260503233621 | 54 | 345 | 1.0 | 1.0 | 0.00 | 0.00 | 0.00 | 93 | 1007.3 |
| 20260503233116 | 53 | 340 | 1.0 | 1.0 | 0.00 | 0.00 | 0.00 | 93 | 1006.9 |
| 20260503232613 | 53 | 352 | 1.0 | 1.0 | 0.00 | 0.00 | 0.00 | 94 | 1007.1 |
| 20260503232111 | 54 | 331 | 2.0 | 2.0 | 0.00 | 0.00 | 0.00 | 94 | 1007.0 |
| 20260503231609 | 54 | 349 | 0.0 | 1.0 | 0.00 | 0.00 | 0.00 | 93 | 1006.8 |
| 20260503231105 | 54 | 313 | 3.0 | 3.0 | 0.00 | 0.00 | 0.00 | 93 | 1006.9 |
| 20260503230602 | 54 | 334 | 2.0 | 2.0 | 0.00 | 0.00 | 0.00 | 92 | 1007.0 |
| 20260503230059 | 54 | 343 | 2.0 | 2.0 | 0.00 | 0.00 | 0.00 | 92 | 1006.9 |
| 20260503225556 | 54 | 344 | 1.0 | 2.0 | 0.00 | 0.00 | 0.00 | 92 | 1007.1 |
| 20260503225051 | 54 | 317 | 2.0 | 2.0 | 0.00 | 0.00 | 0.00 | 92 | 1006.9 |
| 20260503224549 | 54 | 343 | 1.0 | 1.0 | 0.00 | 0.00 | 0.00 | 92 | 1007.0 |
| 20260503224047 | 54 | 333 | 2.0 | 2.0 | 0.00 | 0.00 | 0.00 | 91 | 1007.1 |
| 20260503223544 | 54 | 339 | 3.0 | 3.0 | 0.00 | 0.00 | 0.00 | 91 | 1007.4 |
| 20260503223039 | 54 | 316 | 1.0 | 1.0 | 0.00 | 0.00 | 0.00 | 91 | 1007.4 |
| 20260503222538 | 55 | 333 | 1.0 | 1.0 | 0.00 | 0.00 | 0.00 | 90 | 1007.3 |
| 20260503222036 | 55 | 350 | 0.0 | 0.0 | 0.00 | 0.00 | 0.00 | 91 | 1007.2 |
| 20260503221533 | 55 | 354 | 1.0 | 1.0 | 0.00 | 0.00 | 0.00 | 90 | 1007.3 |
| 20260503221031 | 55 | 352 | 1.0 | 1.0 | 0.00 | 0.00 | 0.00 | 90 | 1007.3 |
| 20260503220527 | 55 | 353 | 0.0 | 0.0 | 0.00 | 0.00 | 0.00 | 91 | 1007.5 |
| 20260503220024 | 54 | 346 | 0.0 | 0.0 | 0.00 | 0.00 | 0.00 | 92 | 1007.4 |
| 20260503215521 | 54 | 354 | 0.0 | 0.0 | 0.00 | 0.00 | 0.00 | 93 | 1007.4 |
| 20260503215018 | 54 | 353 | 0.0 | 0.0 | 0.00 | 0.00 | 0.00 | 94 | 1007.4 |
| 20260503214516 | 54 | 352 | 0.0 | 0.0 | 0.00 | 0.00 | 0.00 | 93 | 1007.8 |
| 20260503214012 | 54 | 11 | 0.0 | 1.0 | 0.00 | 0.00 | 0.00 | 92 | 1008.1 |
| 20260503213511 | 54 | 19 | 0.0 | 0.0 | 0.00 | 0.00 | 0.00 | 93 | 1008.1 |
| 20260503213007 | 54 | 52 | 1.0 | 2.0 | 0.00 | 0.00 | 0.00 | 93 | 1008.2 |
| 20260503212505 | 54 | 348 | 0.0 | 0.0 | 0.00 | 0.00 | 0.00 | 94 | 1008.0 |
| 20260503212002 | 53 | 14 | 0.0 | 0.0 | 0.00 | 0.00 | 0.00 | 93 | 1007.9 |
| 20260503211459 | 53 | 357 | 0.0 | 0.0 | 0.00 | 0.00 | 0.00 | 93 | 1007.7 |
| 20260503210954 | 53 | 8 | 0.0 | 0.0 | 0.00 | 0.00 | 0.00 | 94 | 1007.6 |
| 20260503210452 | 53 | 10 | 0.0 | 0.0 | 0.00 | 0.00 | 0.00 | 94 | 1007.8 |
| 20260503205952 | 53 | 326 | 0.0 | 0.0 | 0.00 | 0.00 | 0.00 | 94 | 1007.6 |
| 20260503205449 | 53 | 353 | 0.0 | 0.0 | 0.00 | 0.00 | 0.00 | 94 | 1007.5 |
| 20260503204945 | 53 | 352 | 0.0 | 0.0 | 0.00 | 0.00 | 0.00 | 94 | 1007.5 |
| 20260503204442 | 53 | 344 | 1.0 | 1.0 | 0.00 | 0.00 | 0.00 | 94 | 1007.4 |
| 20260503203939 | 53 | 348 | 0.0 | 1.0 | 0.00 | 0.00 | 0.00 | 94 | 1007.4 |
| 20260503203437 | 53 | 348 | 1.0 | 1.0 | 0.00 | 0.00 | 0.00 | 95 | 1007.5 |
| 20260503202933 | 53 | 345 | 0.0 | 0.0 | 0.00 | 0.00 | 0.00 | 95 | 1007.2 |
| 20260503202432 | 53 | 350 | 1.0 | 1.0 | 0.00 | 0.00 | 0.00 | 95 | 1007.2 |
| 20260503201930 | 53 | 347 | 1.0 | 1.0 | 0.00 | 0.00 | 0.00 | 95 | 1007.4 |
| 20260503201427 | 53 | 347 | 1.0 | 1.0 | 0.00 | 0.00 | 0.00 | 95 | 1007.5 |
| 20260503200924 | 53 | 340 | 1.0 | 1.0 | 0.00 | 0.00 | 0.00 | 95 | 1007.2 |
| 20260503200420 | 53 | 345 | 1.0 | 1.0 | 0.00 | 0.00 | 0.00 | 95 | 1007.3 |
| 20260503195917 | 53 | 324 | 2.0 | 2.0 | 0.00 | 0.00 | 0.00 | 95 | 1007.4 |
| 20260503195415 | 53 | 345 | 0.0 | 0.0 | 0.00 | 0.00 | 0.00 | 95 | 1007.4 |
| 20260503194911 | 53 | 348 | 0.0 | 0.0 | 0.00 | 0.00 | 0.00 | 95 | 1007.4 |
| 20260503194408 | 53 | 336 | 1.0 | 2.0 | 0.00 | 0.00 | 0.00 | 95 | 1007.2 |
| 20260503193903 | 53 | 347 | 1.0 | 1.0 | 0.00 | 0.00 | 0.00 | 95 | 1007.0 |
| 20260503193359 | 53 | 334 | 1.0 | 2.0 | 0.00 | 0.00 | 0.00 | 95 | 1007.4 |
| 20260503192855 | 53 | 344 | 1.0 | 1.0 | 0.00 | 0.00 | 0.00 | 95 | 1007.2 |
| 20260503192350 | 53 | 340 | 2.0 | 2.0 | 0.00 | 0.00 | 0.00 | 95 | 1007.4 |
| 20260503191847 | 53 | 339 | 1.0 | 2.0 | 0.00 | 0.00 | 0.00 | 95 | 1007.2 |
| 20260503191345 | 53 | 346 | 0.0 | 0.0 | 0.00 | 0.00 | 0.00 | 95 | 1007.2 |
| 20260503190841 | 53 | 345 | 1.0 | 1.0 | 0.00 | 0.00 | 0.00 | 94 | 1007.2 |
| 20260503190338 | 53 | 335 | 2.0 | 2.0 | 0.00 | 0.00 | 0.00 | 94 | 1007.0 |
| 20260503185835 | 54 | 345 | 0.0 | 0.0 | 0.00 | 0.00 | 0.00 | 94 | 1007.2 |
| 20260503185331 | 54 | 345 | 0.0 | 0.0 | 0.00 | 0.00 | 0.00 | 94 | 1006.9 |
| 20260503184831 | 53 | 345 | 0.0 | 0.0 | 0.00 | 0.00 | 0.00 | 95 | 1007.0 |
| 20260503184327 | 53 | 346 | 0.0 | 0.0 | 0.00 | 0.00 | 0.00 | 95 | 1006.9 |
| 20260503183823 | 53 | 346 | 0.0 | 0.0 | 0.00 | 0.00 | 0.00 | 95 | 1006.8 |
| 20260503183321 | 53 | 347 | 0.0 | 0.0 | 0.00 | 0.00 | 0.00 | 94 | 1006.9 |
| 20260503182818 | 54 | 347 | 0.0 | 0.0 | 0.00 | 0.00 | 0.00 | 94 | 1007.0 |
| 20260503182317 | 54 | 357 | 0.0 | 0.0 | 0.00 | 0.00 | 0.00 | 94 | 1006.8 |
| 20260503181814 | 54 | 357 | 0.0 | 0.0 | 0.00 | 0.00 | 0.00 | 95 | 1006.8 |
| 20260503181311 | 54 | 1 | 0.0 | 0.0 | 0.00 | 0.00 | 0.00 | 95 | 1006.9 |
| 20260503180807 | 53 | 355 | 0.0 | 0.0 | 0.00 | 0.00 | 0.00 | 95 | 1007.1 |
| 20260503180306 | 53 | 345 | 0.0 | 0.0 | 0.00 | 0.00 | 0.00 | 95 | 1006.6 |
| 20260503175801 | 53 | 346 | 0.0 | 0.0 | 0.00 | 0.00 | 0.00 | 95 | 1006.8 |
| 20260503175300 | 53 | 347 | 0.0 | 0.0 | 0.00 | 0.00 | 0.00 | 96 | 1006.9 |
| 20260503174755 | 53 | 359 | 0.0 | 0.0 | 0.00 | 0.00 | 0.00 | 96 | 1006.8 |
| 20260503174253 | 53 | 350 | 0.0 | 0.0 | 0.00 | 0.00 | 0.00 | 97 | 1006.8 |
| 20260503173748 | 52 | 345 | 1.0 | 1.0 | 0.00 | 0.00 | 0.00 | 97 | 1006.7 |
| 20260503173244 | 53 | 348 | 0.0 | 0.0 | 0.00 | 0.00 | 0.00 | 98 | 1006.6 |
| 20260503172741 | 52 | 352 | 1.0 | 1.0 | 0.00 | 0.00 | 0.00 | 98 | 1006.8 |
| 20260503172238 | 52 | 349 | 1.0 | 1.0 | 0.00 | 0.00 | 0.00 | 98 | 1006.7 |
| 20260503171735 | 52 | 345 | 1.0 | 1.0 | 0.00 | 0.00 | 0.00 | 99 | 1006.8 |
| 20260503171232 | 52 | 345 | 0.0 | 1.0 | 0.00 | 0.00 | 0.00 | 99 | 1006.8 |
| 20260503170729 | 52 | 349 | 0.0 | 0.0 | 0.00 | 0.00 | 0.00 | 99 | 1006.8 |
| 20260503170226 | 52 | 348 | 0.0 | 0.0 | 0.00 | 0.00 | 0.00 | 99 | 1006.9 |
| 20260503160147 | 51 | 353 | 0.0 | 0.0 | 0.00 | 0.00 | 0.00 | 99 | 1006.6 |
| 20260503150618 | 51 | 352 | 0.0 | 0.0 | 0.00 | 0.00 | 0.00 | 99 | 1006.4 |
| 20260503150114 | 51 | 352 | 0.0 | 0.0 | 0.00 | 0.00 | 0.00 | 99 | 1006.4 |
| 20260503131007 | 50 | 345 | 0.0 | 0.0 | 0.00 | 0.00 | 0.00 | 99 | 1005.3 |
| 20260503130505 | 50 | 345 | 0.0 | 0.0 | 0.00 | 0.00 | 0.00 | 99 | 1005.5 |
| 20260503110355 | 51 | 345 | 0.0 | 0.0 | 0.00 | 0.00 | 0.00 | 99 | 1005.6 |
| 20260503090241 | 51 | 345 | 0.0 | 0.0 | 0.00 | 0.00 | 0.00 | 99 | 1006.3 |
| 20260503081209 | 51 | 345 | 0.0 | 0.0 | 0.00 | 0.00 | 0.00 | 98 | 1006.4 |
| 20260503080704 | 51 | 345 | 0.0 | 0.0 | 0.00 | 0.00 | 0.00 | 98 | 1006.5 |
| 20260503080201 | 51 | 345 | 0.0 | 0.0 | 0.00 | 0.00 | 0.00 | 98 | 1006.5 |
| 20260503072638 | 51 | 345 | 0.0 | 0.0 | 0.00 | 0.00 | 0.00 | 98 | 1006.8 |
| 20260503072135 | 51 | 345 | 0.0 | 0.0 | 0.00 | 0.00 | 0.00 | 97 | 1006.9 |
| 20260503071632 | 52 | 345 | 0.0 | 0.0 | 0.00 | 0.00 | 0.00 | 97 | 1006.9 |
| 20260503071128 | 52 | 345 | 0.0 | 0.0 | 0.00 | 0.00 | 0.00 | 97 | 1006.8 |
| 20260503070625 | 52 | 345 | 0.0 | 0.0 | 0.00 | 0.00 | 0.00 | 97 | 1006.8 |
| 20260503070124 | 52 | 345 | 0.0 | 0.0 | 0.00 | 0.00 | 0.00 | 97 | 1006.9 |
| 20260503055044 | 52 | 349 | 0.0 | 0.0 | 0.00 | 0.00 | 0.00 | 96 | 1007.0 |
| 20260503054540 | 52 | 349 | 0.0 | 0.0 | 0.00 | 0.00 | 0.00 | 96 | 1007.0 |
| 20260503054037 | 52 | 349 | 0.0 | 0.0 | 0.00 | 0.00 | 0.00 | 96 | 1007.1 |
| 20260503053535 | 52 | 349 | 0.0 | 0.0 | 0.00 | 0.00 | 0.00 | 96 | 1007.1 |
| 20260503053033 | 52 | 349 | 0.0 | 0.0 | 0.00 | 0.00 | 0.00 | 96 | 1007.2 |
| 20260503052529 | 52 | 349 | 0.0 | 0.0 | 0.00 | 0.00 | 0.00 | 96 | 1007.2 |
| 20260503052025 | 52 | 349 | 0.0 | 0.0 | 0.00 | 0.00 | 0.00 | 96 | 1007.1 |
| 20260503051521 | 52 | 346 | 0.0 | 0.0 | 0.00 | 0.00 | 0.00 | 96 | 1007.2 |
| 20260503051019 | 52 | 352 | 0.0 | 0.0 | 0.00 | 0.00 | 0.00 | 96 | 1007.3 |
| 20260503050514 | 52 | 353 | 0.0 | 0.0 | 0.00 | 0.00 | 0.00 | 96 | 1007.2 |
| 20260503050012 | 52 | 352 | 0.0 | 0.0 | 0.00 | 0.00 | 0.00 | 96 | 1007.2 |
| 20260503045509 | 52 | 352 | 0.0 | 0.0 | 0.00 | 0.00 | 0.00 | 96 | 1007.1 |
| 20260503045006 | 52 | 352 | 0.0 | 0.0 | 0.00 | 0.00 | 0.00 | 96 | 1007.1 |
| 20260503044503 | 52 | 349 | 0.0 | 0.0 | 0.00 | 0.00 | 0.00 | 96 | 1007.1 |
| 20260503044001 | 52 | 350 | 0.0 | 0.0 | 0.00 | 0.00 | 0.00 | 96 | 1007.1 |
| 20260503043456 | 52 | 347 | 0.0 | 1.0 | 0.00 | 0.00 | 0.00 | 96 | 1007.2 |
| 20260503042953 | 52 | 353 | 1.0 | 1.0 | 0.00 | 0.00 | 0.00 | 96 | 1006.9 |
| 20260503042450 | 52 | 349 | 0.0 | 0.0 | 0.00 | 0.00 | 0.00 | 96 | 1006.7 |
| 20260503041947 | 52 | 348 | 1.0 | 1.0 | 0.00 | 0.00 | 0.00 | 95 | 1006.8 |
| 20260503041443 | 52 | 353 | 0.0 | 0.0 | 0.00 | 0.00 | 0.00 | 95 | 1006.8 |
| 20260503040941 | 52 | 352 | 0.0 | 0.0 | 0.00 | 0.00 | 0.00 | 95 | 1006.7 |
| 20260503040438 | 52 | 352 | 0.0 | 0.0 | 0.00 | 0.00 | 0.00 | 95 | 1006.6 |
| 20260503035935 | 52 | 347 | 0.0 | 0.0 | 0.00 | 0.00 | 0.00 | 95 | 1006.8 |
| 20260503035432 | 52 | 347 | 0.0 | 0.0 | 0.00 | 0.00 | 0.00 | 95 | 1006.6 |
| 20260503034930 | 52 | 347 | 0.0 | 0.0 | 0.00 | 0.00 | 0.00 | 94 | 1006.4 |
| 20260503034427 | 52 | 347 | 0.0 | 0.0 | 0.00 | 0.00 | 0.00 | 94 | 1006.3 |
| 20260503033924 | 53 | 347 | 0.0 | 0.0 | 0.00 | 0.00 | 0.00 | 94 | 1006.4 |
| 20260503033421 | 53 | 347 | 0.0 | 0.0 | 0.00 | 0.00 | 0.00 | 94 | 1006.4 |
| 20260503032919 | 53 | 347 | 0.0 | 0.0 | 0.00 | 0.00 | 0.00 | 94 | 1006.4 |
| 20260503032418 | 53 | 347 | 0.0 | 0.0 | 0.00 | 0.00 | 0.00 | 94 | 1006.3 |
| 20260503031915 | 53 | 347 | 0.0 | 0.0 | 0.00 | 0.00 | 0.00 | 94 | 1006.1 |
| 20260503031413 | 53 | 353 | 0.0 | 0.0 | 0.00 | 0.00 | 0.00 | 94 | 1006.2 |
| 20260503030909 | 53 | 353 | 0.0 | 0.0 | 0.00 | 0.00 | 0.00 | 94 | 1006.0 |
| 20260503030405 | 53 | 354 | 0.0 | 0.0 | 0.00 | 0.00 | 0.00 | 94 | 1006.0 |
| 20260503025902 | 53 | 351 | 0.0 | 0.0 | 0.00 | 0.00 | 0.00 | 93 | 1005.9 |
| 20260503025359 | 53 | 352 | 0.0 | 0.0 | 0.00 | 0.00 | 0.00 | 93 | 1006.0 |
| 20260503024856 | 53 | 347 | 0.0 | 0.0 | 0.00 | 0.00 | 0.00 | 93 | 1006.0 |
| 20260503024353 | 53 | 348 | 0.0 | 0.0 | 0.00 | 0.00 | 0.00 | 92 | 1005.8 |
| 20260503023849 | 53 | 349 | 1.0 | 1.0 | 0.00 | 0.00 | 0.00 | 92 | 1005.5 |
| 20260503023341 | 53 | 351 | 1.0 | 1.0 | 0.00 | 0.00 | 0.00 | 92 | 1005.9 |
| 20260503022837 | 54 | 352 | 1.0 | 1.0 | 0.00 | 0.00 | 0.00 | 92 | 1005.6 |
| 20260503022332 | 54 | 352 | 1.0 | 1.0 | 0.00 | 0.00 | 0.00 | 92 | 1005.7 |
| 20260503021829 | 54 | 351 | 1.0 | 2.0 | 0.00 | 0.00 | 0.00 | 92 | 1005.4 |
| 20260503021325 | 54 | 0 | 1.0 | 1.0 | 0.00 | 0.00 | 0.00 | 92 | 1005.7 |
| 20260503020823 | 54 | 353 | 0.0 | 0.0 | 0.00 | 0.00 | 0.00 | 92 | 1005.6 |
| 20260503020321 | 54 | 352 | 0.0 | 0.0 | 0.00 | 0.00 | 0.00 | 91 | 1005.4 |
| 20260503015817 | 54 | 351 | 0.0 | 0.0 | 0.00 | 0.00 | 0.00 | 91 | 1005.6 |
| 20260503015314 | 54 | 349 | 0.0 | 1.0 | 0.00 | 0.00 | 0.00 | 91 | 1005.6 |
| 20260503014809 | 55 | 345 | 1.0 | 1.0 | 0.00 | 0.00 | 0.00 | 90 | 1005.7 |
| 20260503014307 | 55 | 354 | 0.0 | 0.0 | 0.00 | 0.00 | 0.00 | 90 | 1005.5 |
| 20260503013804 | 54 | 355 | 0.0 | 0.0 | 0.00 | 0.00 | 0.00 | 90 | 1005.5 |
| 20260503013302 | 54 | 356 | 0.0 | 0.0 | 0.00 | 0.00 | 0.00 | 90 | 1005.7 |
| 20260503012759 | 54 | 356 | 0.0 | 0.0 | 0.00 | 0.00 | 0.00 | 91 | 1005.5 |
| 20260503012256 | 54 | 355 | 0.0 | 0.0 | 0.00 | 0.00 | 0.00 | 90 | 1005.6 |
| 20260503011753 | 54 | 352 | 0.0 | 0.0 | 0.00 | 0.00 | 0.00 | 90 | 1005.8 |
| 20260503011250 | 54 | 355 | 0.0 | 0.0 | 0.00 | 0.00 | 0.00 | 90 | 1005.9 |
| 20260503010746 | 54 | 351 | 0.0 | 0.0 | 0.00 | 0.00 | 0.00 | 90 | 1005.8 |
| 20260503010243 | 54 | 350 | 0.0 | 0.0 | 0.00 | 0.00 | 0.00 | 90 | 1005.9 |
| 20260503005740 | 54 | 348 | 0.0 | 1.0 | 0.00 | 0.00 | 0.00 | 90 | 1006.0 |